Location: Barrialito
(10.1025°N, 66.8154°W)
Time: 11:18:40
(UTC+00:00)

FALCON 9 R/B - Visible Passes

Search period start: 05 December 2025 00:00
Search period end: 15 December 2025 00:00
Orbit: 298 x 9289 km, 34.5° (Epoch: 04 December)

Date Brightness Start Highest point End Pass type
(mag) Time Alt. Az. Time Alt. Az. Time Alt. Az.
05 Dec 6.5 02:41:37 10° NW 04:15:38 - ESE 03:31:02 51° NW visible
05 Dec 5.5 07:31:28 20° SW 07:31:28 20° SW 07:35:48 10° S visible
05 Dec 7.2 21:25:24 10° W 22:00:02 51° N 23:06:24 16° ENE visible
06 Dec 6.7 01:14:53 10° WNW 02:22:15 64° N 02:22:15 64° N visible
06 Dec 5.5 05:28:47 10° WNW 06:22:06 27° S 06:25:58 10° SSE visible
06 Dec 6.8 23:51:30 10° WNW 01:00:14 57° NNE 01:13:31 53° NE visible
07 Dec 5.9 03:55:50 10° WNW 05:12:39 18° SE 05:14:27 10° SE visible
07 Dec 6.9 22:31:11 10° WNW 23:23:12 51° N 00:04:49 32° ENE visible
08 Dec 6.5 02:26:30 10° NW 04:03:08 - SE 03:20:45 58° NW visible
08 Dec 5.7 07:18:55 18° SW 07:18:55 18° SW 07:23:04 10° SSW visible
08 Dec 7.2 21:13:26 10° WNW 21:47:06 50° N 22:56:14 13° ENE visible
09 Dec 6.6 01:00:48 10° NW 02:12:06 70° NNE 02:12:06 70° NNE visible
09 Dec 5.6 05:12:57 10° WNW 06:09:16 26° S 06:13:22 10° SSE visible
09 Dec 6.7 23:38:19 10° WNW 00:45:55 59° NNE 01:03:33 52° ENE visible
10 Dec 6.0 03:39:34 10° WNW 04:59:31 20° SSE 05:01:45 10° SE visible
10 Dec 7.0 22:18:31 10° WNW 23:09:20 51° NNE 23:55:05 29° ENE visible
11 Dec 6.5 02:10:53 10° NW 03:49:40 - SE 03:11:02 66° NW visible
11 Dec 6.0 07:05:24 17° SW 07:05:24 17° SW 07:09:45 10° SSW visible
11 Dec 7.3 21:00:56 10° WNW 21:33:35 48° N 22:45:43 10° ENE visible
12 Dec 6.5 00:46:09 10° NW 02:00:41 74° NE 02:02:40 74° NE visible
12 Dec 5.8 04:56:33 10° WNW 05:55:24 26° S 06:00:10 10° SSE visible
12 Dec 6.7 23:24:30 10° WNW 00:30:34 61° NNE 00:54:26 48° ENE visible
13 Dec 6.0 03:22:50 10° WNW 04:45:16 23° SSE 04:48:27 10° SSE visible
13 Dec 7.0 22:05:15 10° WNW 22:54:33 52° NNE 23:46:23 24° E visible
14 Dec 6.5 01:54:49 10° NW 03:34:59 11° SE 03:35:21 10° SE visible
14 Dec 6.1 06:50:39 17° SW 06:50:39 17° SW 06:55:50 10° SSW visible
14 Dec 7.2 20:47:53 10° WNW 21:19:27 47° N 22:31:17 10° E visible
